Location: Zlin
(49.2330°N, 17.6670°E)
Time: 02:39:16
(UTC+01:00)

ISS - Pass Details

Date: 05 October 2020
Orbit: 417 x 420 km, 51.6° (Epoch: 25 October)

Event Time Altitude Azimuth Distance (km) Brightness Sun altitude
Rises 19:33:08 0° 288° (WNW) 2,369 1.9 -12.9°
Reaches altitude 10° 19:35:25 10° 276° (W) 1,502 0.5 -13.3°
Maximum altitude 19:38:19 27° 216° (SW) 836 -2.0 -13.8°
Enters shadow 19:41:03 11° 158° (SSE) 1,430 -1.4 -14.2°
